Location: Rocktram
(38.2574°N, 122.2805°W)
Time: 20:56:49
(UTC+00:00)

Cosmos 2278 Rocket - Pass Details

Date: 30 March 2020
Orbit: 839 x 847 km, 71.0° (Epoch: 29 May)

Event Time Altitude Azimuth Distance (km) Brightness Sun altitude
Rises 03:51:48 0° 326° (NW) 3,410 6.2 -16.4°
Reaches altitude 10° 03:54:30 10° 316° (NW) 2,472 5.6 -16.9°
Maximum altitude 03:59:22 30° 257° (WSW) 1,471 4.0 -17.8°
Drops below altitude 10° 04:04:13 10° 198° (SSW) 2,461 4.6 -18.7°
Sets 04:06:55 0° 187° (S) 3,392 5.2 -19.2°
